| time (UTC) | temp C | wind direction | speed KPH | gust KPH | rain 1hr cm | rain 24hr cm | rain mn cm | humidity % | barometer mb |
| 20260504081518 | 10 | 211 | 1.6 | 4.8 | 0.00 | 0.00 | 0.00 | 58 | 1016.3 |
| 20260504044547 | 11 | 211 | 0.0 | 3.2 | 0.00 | 0.00 | 0.00 | 51 | 1016.5 |
| 20260504043102 | 12 | 211 | 0.0 | 6.4 | 0.00 | 0.00 | 0.00 | 49 | 1016.6 |
| 20260504041534 | 12 | 211 | 1.6 | 4.8 | 0.00 | 0.00 | 0.00 | 48 | 1016.4 |
| 20260504040055 | 12 | 211 | 0.0 | 3.2 | 0.00 | 0.00 | 0.00 | 51 | 1016.4 |
| 20260504034522 | 12 | 211 | 0.0 | 1.6 | 0.00 | 0.00 | 0.00 | 47 | 1016.3 |
| 20260504033037 | 12 | 211 | 0.0 | 1.6 | 0.00 | 0.00 | 0.00 | 46 | 1016.1 |
| 20260504031558 | 12 | 211 | 0.0 | 6.4 | 0.00 | 0.00 | 0.00 | 46 | 1016.2 |
| 20260504030013 | 12 | 211 | 3.2 | 8.0 | 0.00 | 0.00 | 0.00 | 44 | 1016.2 |
| 20260504024548 | 12 | 211 | 3.2 | 8.0 | 0.00 | 0.00 | 0.00 | 45 | 1016.2 |
| 20260504023002 | 12 | 211 | 1.6 | 4.8 | 0.00 | 0.00 | 0.00 | 46 | 1016.1 |
| 20260504021540 | 12 | 211 | 1.6 | 6.4 | 0.00 | 0.00 | 0.00 | 44 | 1015.9 |
| 20260504020112 | 13 | 211 | 3.2 | 8.0 | 0.00 | 0.00 | 0.00 | 43 | 1015.8 |
| 20260504014511 | 13 | 211 | 3.2 | 6.4 | 0.00 | 0.00 | 0.00 | 42 | 1015.7 |
| 20260504013044 | 13 | 211 | 3.2 | 8.0 | 0.00 | 0.00 | 0.00 | 41 | 1015.5 |
| 20260504011552 | 13 | 212 | 3.2 | 8.0 | 0.00 | 0.00 | 0.00 | 40 | 1015.4 |
| 20260504010013 | 14 | 212 | 1.6 | 8.0 | 0.00 | 0.00 | 0.00 | 40 | 1015.4 |
| 20260504004551 | 14 | 212 | 3.2 | 6.4 | 0.00 | 0.00 | 0.00 | 39 | 1015.2 |
| 20260504003009 | 15 | 213 | 0.0 | 4.8 | 0.00 | 0.00 | 0.00 | 38 | 1015.2 |
| 20260504001540 | 15 | 213 | 1.6 | 6.4 | 0.00 | 0.00 | 0.00 | 36 | 1015.1 |
| 20260504000108 | 16 | 213 | 3.2 | 4.8 | 0.00 | 0.00 | 0.00 | 34 | 1015.1 |
| 20260503234537 | 17 | 213 | 3.2 | 9.7 | 0.00 | 0.00 | 0.00 | 30 | 1015.1 |
| 20260503233007 | 17 | 216 | 3.2 | 8.0 | 0.00 | 0.00 | 0.00 | 26 | 1014.9 |
| 20260503231541 | 18 | 217 | 4.8 | 11.3 | 0.00 | 0.00 | 0.00 | 25 | 1015.0 |
| 20260503230058 | 18 | 192 | 4.8 | 11.3 | 0.00 | 0.00 | 0.00 | 25 | 1014.9 |
| 20260503224527 | 18 | 191 | 3.2 | 12.9 | 0.00 | 0.00 | 0.00 | 26 | 1014.7 |
| 20260503223049 | 18 | 184 | 6.4 | 17.7 | 0.00 | 0.00 | 0.00 | 25 | 1014.8 |
| 20260503221509 | 19 | 199 | 6.4 | 12.9 | 0.00 | 0.00 | 0.00 | 24 | 1015.0 |
| 20260503220037 | 20 | 273 | 3.2 | 8.0 | 0.00 | 0.00 | 0.00 | 23 | 1015.0 |
| 20260503214533 | 19 | 293 | 1.6 | 9.7 | 0.00 | 0.00 | 0.00 | 23 | 1015.0 |
| 20260503213046 | 19 | 297 | 3.2 | 9.7 | 0.00 | 0.00 | 0.00 | 25 | 1015.1 |
| 20260503211501 | 19 | 205 | 4.8 | 17.7 | 0.00 | 0.00 | 0.00 | 25 | 1015.1 |
| 20260503210035 | 19 | 307 | 1.6 | 8.0 | 0.00 | 0.00 | 0.00 | 25 | 1015.2 |
| 20260503204616 | 19 | 302 | 11.3 | 24.1 | 0.00 | 0.00 | 0.00 | 25 | 1015.4 |
| 20260503203025 | 19 | 216 | 3.2 | 8.0 | 0.00 | 0.00 | 0.00 | 25 | 1015.5 |
| 20260503201551 | 19 | 261 | 4.8 | 19.3 | 0.00 | 0.00 | 0.00 | 26 | 1015.9 |
| 20260503200003 | 20 | 286 | 8.0 | 16.1 | 0.00 | 0.00 | 0.00 | 25 | 1016.1 |
| 20260503194541 | 18 | 115 | 6.4 | 12.9 | 0.00 | 0.00 | 0.00 | 26 | 1016.1 |
| 20260503193115 | 18 | 261 | 4.8 | 20.9 | 0.00 | 0.00 | 0.00 | 26 | 1016.4 |
| 20260503191515 | 17 | 184 | 4.8 | 14.5 | 0.00 | 0.00 | 0.00 | 28 | 1016.7 |
| 20260503190040 | 17 | 195 | 3.2 | 17.7 | 0.00 | 0.00 | 0.00 | 28 | 1017.0 |
| 20260503184605 | 17 | 317 | 11.3 | 30.6 | 0.00 | 0.00 | 0.00 | 29 | 1017.0 |
| 20260503183016 | 16 | 202 | 6.4 | 17.7 | 0.00 | 0.00 | 0.00 | 29 | 1017.5 |
| 20260503181548 | 16 | 294 | 8.0 | 27.4 | 0.00 | 0.00 | 0.00 | 32 | 1017.6 |
| 20260503180106 | 16 | 186 | 8.0 | 19.3 | 0.00 | 0.00 | 0.00 | 30 | 1017.6 |
| 20260503174526 | 16 | 273 | 6.4 | 16.1 | 0.00 | 0.00 | 0.00 | 29 | 1018.0 |
| 20260503173047 | 16 | 294 | 6.4 | 25.7 | 0.00 | 0.00 | 0.00 | 30 | 1017.9 |
| 20260503171517 | 16 | 225 | 3.2 | 25.7 | 0.00 | 0.00 | 0.00 | 30 | 1018.0 |